Location: Haram ta Haram Freeway
(35.0583°N, 51.4202°E)
Time: 17:14:04
(UTC+03:30)

X-37B - Visible Passes

Search period start: 28 February 2021 00:00
Search period end: 10 March 2021 00:00
Orbit: 383 x 391 km, 45.0° (Epoch: 27 February)

Date Brightness Start Highest point End Pass type
(mag) Time Alt. Az. Time Alt. Az. Time Alt. Az.
28 Feb 1.8 05:46:19 10° NW 05:49:16 36° NNE 05:52:13 10° E visible
01 Mar 2.5 04:50:39 23° NNE 04:50:46 23° NNE 04:53:23 10° ENE visible
02 Mar 0.8 05:27:23 22° NW 05:29:13 68° NNE 05:32:22 10° ESE visible
03 Mar 2.8 04:31:56 26° ENE 04:31:56 26° ENE 04:33:45 10° E visible
03 Mar 1.8 06:04:38 10° W 06:07:20 26° SW 06:10:02 10° SSE visible
04 Mar 0.6 05:08:55 55° SW 05:09:06 56° SW 05:12:10 10° SE visible
05 Mar 3.9 04:13:43 11° ESE 04:13:43 11° ESE 04:13:54 10° ESE visible
05 Mar 2.7 05:46:02 11° WSW 05:47:02 13° SW 05:48:32 10° SSW visible
06 Mar 3.1 04:50:59 14° SSE 04:50:59 14° SSE 04:51:33 10° SSE visible
08 Mar 2.9 19:23:23 10° S 19:24:08 13° S 19:24:08 13° S visible
09 Mar 2.9 20:00:24 10° SW 20:01:35 21° SW 20:01:35 21° SW visible
